| time (UTC) | temp F | wind direction | speed knots | gust knots | rain 1hr in | rain 24hr in | rain mn in | humidity % | barometer mb |
| 20260510194030 | 68 | 0 | 0.0 | 2.6 | 0.02 | 0.13 | 0.02 | 84 | 1011.4 |
| 20260510193530 | 68 | 241 | 0.9 | 2.6 | 0.02 | 0.13 | 0.02 | 79 | 1011.3 |
| 20260510193040 | 68 | 328 | 0.0 | 2.6 | 0.02 | 0.13 | 0.02 | 83 | 1011.4 |
| 20260510192526 | 68 | 32 | 0.0 | 1.7 | 0.02 | 0.13 | 0.02 | 82 | 1011.3 |
| 20260510192026 | 67 | 71 | 0.0 | 1.7 | 0.02 | 0.13 | 0.02 | 86 | 1011.4 |
| 20260510191538 | 67 | 72 | 0.9 | 1.7 | 0.02 | 0.13 | 0.02 | 85 | 1011.5 |
| 20260510191029 | 66 | 0 | 0.0 | 1.7 | 0.02 | 0.13 | 0.02 | 89 | 1011.5 |
| 20260510190527 | 66 | 90 | 0.9 | 1.7 | 0.02 | 0.13 | 0.02 | 86 | 1011.6 |
| 20260510190044 | 67 | 0 | 0.0 | 1.7 | 0.02 | 0.13 | 0.02 | 81 | 1011.6 |
| 20260510185528 | 68 | 0 | 0.0 | 1.7 | 0.01 | 0.13 | 0.01 | 77 | 1011.6 |
| 20260510185026 | 68 | 77 | 0.0 | 1.7 | 0.00 | 0.12 | 0.00 | 73 | 1011.6 |
| 20260510184545 | 69 | 134 | 0.9 | 1.7 | 0.00 | 0.12 | 0.00 | 73 | 1011.4 |
| 20260510184026 | 69 | 130 | 0.0 | 3.5 | 0.00 | 0.12 | 0.00 | 74 | 1011.5 |
| 20260510183526 | 68 | 204 | 1.7 | 4.3 | 0.00 | 0.12 | 0.00 | 74 | 1011.6 |
| 20260510183043 | 68 | 151 | 1.7 | 4.3 | 0.00 | 0.12 | 0.00 | 71 | 1011.4 |
| 20260510182529 | 68 | 158 | 1.7 | 4.3 | 0.00 | 0.12 | 0.00 | 72 | 1011.5 |
| 20260510182028 | 69 | 148 | 0.9 | 3.5 | 0.00 | 0.12 | 0.00 | 72 | 1011.5 |
| 20260510181558 | 69 | 196 | 1.7 | 4.3 | 0.00 | 0.12 | 0.00 | 71 | 1011.5 |
| 20260510181028 | 70 | 216 | 0.9 | 4.3 | 0.00 | 0.12 | 0.00 | 69 | 1011.4 |
| 20260510180528 | 70 | 139 | 0.9 | 2.6 | 0.00 | 0.12 | 0.00 | 72 | 1011.4 |
| 20260510180058 | 68 | 0 | 0.0 | 2.6 | 0.00 | 0.12 | 0.00 | 73 | 1011.5 |
| 20260510175526 | 68 | 0 | 0.0 | 2.6 | 0.00 | 0.16 | 0.00 | 73 | 1011.7 |
| 20260510175025 | 67 | 304 | 0.9 | 3.5 | 0.00 | 0.16 | 0.00 | 73 | 1011.7 |
| 20260510174541 | 67 | 353 | 0.9 | 3.5 | 0.00 | 0.16 | 0.00 | 73 | 1011.8 |
| 20260510174031 | 67 | 98 | 0.0 | 1.7 | 0.00 | 0.16 | 0.00 | 72 | 1011.2 |
| 20260510173528 | 68 | 106 | 0.9 | 1.7 | 0.00 | 0.16 | 0.00 | 72 | 1011.3 |
| 20260510173043 | 68 | 117 | 0.9 | 5.2 | 0.00 | 0.16 | 0.00 | 71 | 1011.5 |
| 20260510172528 | 69 | 0 | 0.9 | 5.2 | 0.00 | 0.16 | 0.00 | 71 | 1011.4 |
| 20260510172028 | 70 | 174 | 2.6 | 5.2 | 0.00 | 0.16 | 0.00 | 67 | 1011.6 |
| 20260510171547 | 71 | 165 | 0.9 | 4.3 | 0.00 | 0.16 | 0.00 | 70 | 1011.6 |
| 20260510171028 | 71 | 227 | 1.7 | 4.3 | 0.00 | 0.16 | 0.00 | 70 | 1011.7 |
| 20260510170528 | 71 | 133 | 2.6 | 4.3 | 0.00 | 0.16 | 0.00 | 70 | 1011.8 |
| 20260510170035 | 70 | 154 | 1.7 | 4.3 | 0.00 | 0.16 | 0.00 | 70 | 1011.9 |
| 20260510165529 | 70 | 222 | 1.7 | 4.3 | 0.00 | 0.19 | 0.00 | 69 | 1012.0 |
| 20260510165029 | 70 | 158 | 1.7 | 4.3 | 0.00 | 0.19 | 0.00 | 68 | 1012.0 |
| 20260510164539 | 69 | 145 | 0.9 | 4.3 | 0.00 | 0.19 | 0.00 | 71 | 1012.1 |
| 20260510164026 | 69 | 220 | 0.9 | 2.6 | 0.00 | 0.19 | 0.00 | 72 | 1012.2 |
| 20260510163526 | 69 | 130 | 0.9 | 3.5 | 0.00 | 0.19 | 0.00 | 72 | 1012.2 |
| 20260510163045 | 68 | 136 | 1.7 | 4.3 | 0.00 | 0.19 | 0.00 | 73 | 1012.2 |
| 20260510162530 | 68 | 186 | 2.6 | 4.3 | 0.00 | 0.19 | 0.00 | 71 | 1012.4 |
| 20260510162029 | 68 | 211 | 1.7 | 4.3 | 0.00 | 0.19 | 0.00 | 72 | 1012.3 |
| 20260510161544 | 67 | 218 | 0.0 | 4.3 | 0.00 | 0.19 | 0.00 | 76 | 1012.3 |
| 20260510161030 | 67 | 39 | 1.7 | 4.3 | 0.00 | 0.19 | 0.00 | 75 | 1012.4 |
| 20260510160531 | 67 | 139 | 1.7 | 4.3 | 0.00 | 0.19 | 0.00 | 75 | 1012.3 |
| 20260510160041 | 66 | 137 | 0.9 | 4.3 | 0.00 | 0.19 | 0.00 | 77 | 1012.5 |
| 20260510155532 | 65 | 126 | 2.6 | 4.3 | 0.00 | 0.21 | 0.00 | 79 | 1012.5 |
| 20260510155030 | 65 | 53 | 1.7 | 4.3 | 0.00 | 0.21 | 0.00 | 78 | 1012.6 |
| 20260510154538 | 64 | 120 | 0.9 | 4.3 | 0.00 | 0.21 | 0.00 | 78 | 1012.7 |
| 20260510154030 | 64 | 207 | 1.7 | 4.3 | 0.00 | 0.21 | 0.00 | 79 | 1012.8 |
| 20260510153530 | 64 | 148 | 1.7 | 5.2 | 0.00 | 0.21 | 0.00 | 78 | 1012.8 |
| 20260510153040 | 63 | 137 | 2.6 | 5.2 | 0.00 | 0.21 | 0.00 | 80 | 1012.7 |
| 20260510152530 | 63 | 139 | 3.5 | 5.2 | 0.00 | 0.21 | 0.00 | 79 | 1012.9 |
| 20260510152033 | 63 | 250 | 0.9 | 4.3 | 0.00 | 0.21 | 0.00 | 81 | 1012.8 |
| 20260510151542 | 62 | 210 | 2.6 | 4.3 | 0.00 | 0.21 | 0.00 | 81 | 1012.9 |
| 20260510151030 | 61 | 120 | 0.9 | 2.6 | 0.00 | 0.21 | 0.00 | 84 | 1013.0 |
| 20260510150532 | 61 | 162 | 1.7 | 3.5 | 0.00 | 0.21 | 0.00 | 84 | 1012.9 |
| 20260510150113 | 61 | 224 | 0.9 | 5.2 | 0.00 | 0.21 | 0.00 | 84 | 1013.0 |
| 20260510145529 | 61 | 150 | 1.7 | 5.2 | 0.00 | 0.23 | 0.00 | 85 | 1012.8 |
| 20260510145029 | 60 | 253 | 0.9 | 2.6 | 0.00 | 0.23 | 0.00 | 86 | 1012.9 |
| 20260510144541 | 60 | 193 | 0.9 | 2.6 | 0.00 | 0.23 | 0.00 | 87 | 1012.8 |
| 20260510144030 | 59 | 141 | 0.9 | 3.5 | 0.00 | 0.23 | 0.00 | 87 | 1012.9 |
| 20260510143530 | 58 | 120 | 1.7 | 3.5 | 0.00 | 0.23 | 0.00 | 87 | 1013.0 |
| 20260510143043 | 58 | 0 | 1.7 | 2.6 | 0.00 | 0.23 | 0.00 | 88 | 1013.0 |
| 20260510142531 | 58 | 147 | 0.9 | 1.7 | 0.00 | 0.23 | 0.00 | 88 | 1012.9 |
| 20260510142030 | 58 | 0 | 0.0 | 4.3 | 0.00 | 0.23 | 0.00 | 89 | 1013.0 |
| 20260510141542 | 58 | 188 | 0.9 | 4.3 | 0.00 | 0.23 | 0.00 | 89 | 1013.0 |
| 20260510141031 | 57 | 140 | 0.9 | 1.7 | 0.00 | 0.23 | 0.00 | 88 | 1013.0 |
| 20260510140530 | 57 | 130 | 0.9 | 1.7 | 0.00 | 0.23 | 0.00 | 89 | 1013.0 |
| 20260510140042 | 57 | 0 | 0.0 | 0.9 | 0.00 | 0.23 | 0.00 | 90 | 1013.1 |
| 20260510135530 | 57 | 214 | 0.0 | 0.9 | 0.00 | 0.25 | 0.00 | 90 | 1013.0 |
| 20260510135030 | 56 | 0 | 0.0 | 1.7 | 0.00 | 0.25 | 0.00 | 92 | 1013.1 |
| 20260510134545 | 56 | 138 | 0.9 | 2.6 | 0.00 | 0.25 | 0.00 | 91 | 1013.1 |
| 20260510134029 | 56 | 0 | 0.0 | 2.6 | 0.00 | 0.25 | 0.00 | 92 | 1013.2 |
| 20260510133529 | 56 | 203 | 0.9 | 2.6 | 0.00 | 0.25 | 0.00 | 93 | 1013.2 |
| 20260510133045 | 55 | 0 | 0.9 | 2.6 | 0.00 | 0.25 | 0.00 | 93 | 1013.2 |
| 20260510132529 | 55 | 151 | 0.0 | 1.7 | 0.00 | 0.25 | 0.00 | 95 | 1013.3 |
| 20260510132030 | 55 | 148 | 0.0 | 1.7 | 0.00 | 0.25 | 0.00 | 96 | 1013.2 |
| 20260510131543 | 54 | 146 | 0.0 | 1.7 | 0.00 | 0.25 | 0.00 | 96 | 1013.1 |
| 20260510131030 | 54 | 0 | 0.0 | 1.7 | 0.00 | 0.25 | 0.00 | 96 | 1013.0 |
| 20260510130532 | 54 | 151 | 0.0 | 0.9 | 0.00 | 0.25 | 0.00 | 97 | 1013.1 |
| 20260510130042 | 54 | 0 | 0.0 | 0.9 | 0.00 | 0.25 | 0.00 | 97 | 1012.9 |
| 20260510125532 | 53 | 0 | 0.0 | 0.9 | 0.00 | 0.27 | 0.00 | 97 | 1013.1 |
| 20260510125030 | 53 | 142 | 0.0 | 0.9 | 0.00 | 0.27 | 0.00 | 97 | 1013.0 |
| 20260510124539 | 53 | 142 | 0.0 | 0.9 | 0.00 | 0.27 | 0.00 | 97 | 1012.9 |
| 20260510124032 | 53 | 0 | 0.0 | 0.9 | 0.00 | 0.27 | 0.00 | 97 | 1013.1 |
| 20260510123530 | 53 | 0 | 0.0 | 0.9 | 0.00 | 0.27 | 0.00 | 98 | 1013.0 |
| 20260510123046 | 53 | 0 | 0.0 | 0.9 | 0.00 | 0.27 | 0.00 | 98 | 1013.0 |
| 20260510122529 | 53 | 138 | 0.0 | 0.9 | 0.00 | 0.27 | 0.00 | 98 | 1012.9 |
| 20260510122029 | 53 | 0 | 0.0 | 0.0 | 0.00 | 0.27 | 0.00 | 98 | 1012.9 |
| 20260510121545 | 53 | 0 | 0.0 | 0.0 | 0.00 | 0.27 | 0.00 | 98 | 1012.8 |
| 20260510121031 | 53 | 0 | 0.0 | 0.0 | 0.00 | 0.27 | 0.00 | 98 | 1012.9 |
| 20260510120531 | 53 | 0 | 0.0 | 0.0 | 0.00 | 0.27 | 0.00 | 98 | 1012.7 |
| 20260510120044 | 53 | 0 | 0.0 | 0.9 | 0.00 | 0.27 | 0.00 | 98 | 1012.8 |
| 20260510115530 | 52 | 0 | 0.0 | 0.9 | 0.00 | 0.28 | 0.00 | 98 | 1013.0 |
| 20260510115034 | 52 | 0 | 0.0 | 0.9 | 0.00 | 0.28 | 0.00 | 98 | 1012.8 |
| 20260510114547 | 52 | 0 | 0.0 | 0.9 | 0.00 | 0.28 | 0.00 | 98 | 1012.8 |
| 20260510114031 | 52 | 0 | 0.0 | 0.9 | 0.00 | 0.28 | 0.00 | 98 | 1013.0 |
| 20260510113530 | 52 | 0 | 0.0 | 0.9 | 0.00 | 0.28 | 0.00 | 98 | 1013.0 |
| 20260510113041 | 52 | 0 | 0.0 | 0.9 | 0.00 | 0.28 | 0.00 | 98 | 1012.9 |
| 20260510112534 | 52 | 135 | 0.0 | 0.0 | 0.00 | 0.28 | 0.00 | 98 | 1012.8 |
| 20260510112030 | 52 | 178 | 0.0 | 0.0 | 0.00 | 0.28 | 0.00 | 98 | 1012.9 |
| 20260510111538 | 52 | 0 | 0.0 | 0.0 | 0.00 | 0.28 | 0.00 | 98 | 1012.7 |
| 20260510111029 | 52 | 0 | 0.0 | 0.0 | 0.00 | 0.28 | 0.00 | 98 | 1012.7 |
| 20260510110533 | 52 | 0 | 0.0 | 0.0 | 0.00 | 0.28 | 0.00 | 98 | 1012.5 |
| 20260510110046 | 51 | 0 | 0.0 | 0.0 | 0.00 | 0.28 | 0.00 | 98 | 1012.5 |
| 20260510105530 | 51 | 0 | 0.0 | 0.0 | 0.00 | 0.34 | 0.00 | 98 | 1012.5 |
| 20260510105030 | 51 | 0 | 0.0 | 0.0 | 0.00 | 0.34 | 0.00 | 98 | 1012.7 |
| 20260510104542 | 51 | 0 | 0.0 | 0.0 | 0.00 | 0.34 | 0.00 | 98 | 1012.7 |
| 20260510104029 | 51 | 0 | 0.0 | 0.0 | 0.00 | 0.34 | 0.00 | 98 | 1012.4 |
| 20260510103532 | 51 | 0 | 0.0 | 0.0 | 0.00 | 0.34 | 0.00 | 98 | 1012.3 |
| 20260510103044 | 51 | 0 | 0.0 | 0.9 | 0.00 | 0.34 | 0.00 | 98 | 1012.1 |
| 20260510102529 | 51 | 0 | 0.0 | 0.9 | 0.00 | 0.34 | 0.00 | 98 | 1012.1 |
| 20260510102033 | 51 | 0 | 0.0 | 0.9 | 0.00 | 0.34 | 0.00 | 98 | 1012.1 |
| 20260510101543 | 51 | 0 | 0.0 | 0.9 | 0.00 | 0.34 | 0.00 | 98 | 1012.1 |
| 20260510101030 | 50 | 0 | 0.0 | 0.9 | 0.00 | 0.34 | 0.00 | 98 | 1011.9 |
| 20260510100530 | 50 | 0 | 0.0 | 0.9 | 0.00 | 0.34 | 0.00 | 98 | 1012.1 |
| 20260510100045 | 50 | 106 | 0.0 | 0.0 | 0.00 | 0.34 | 0.00 | 98 | 1011.8 |
| 20260510095529 | 50 | 0 | 0.0 | 0.9 | 0.00 | 0.39 | 0.00 | 98 | 1011.5 |
| 20260510095029 | 50 | 0 | 0.0 | 0.9 | 0.00 | 0.39 | 0.00 | 98 | 1011.4 |
| 20260510094556 | 50 | 106 | 0.0 | 0.9 | 0.00 | 0.39 | 0.00 | 98 | 1011.3 |
| 20260510094030 | 50 | 105 | 0.0 | 0.9 | 0.00 | 0.39 | 0.00 | 98 | 1011.3 |
| 20260510093530 | 50 | 0 | 0.0 | 0.9 | 0.00 | 0.39 | 0.00 | 98 | 1011.3 |
| 20260510093059 | 50 | 144 | 0.0 | 1.7 | 0.00 | 0.39 | 0.00 | 98 | 1011.2 |
| 20260510092530 | 50 | 0 | 0.0 | 1.7 | 0.00 | 0.39 | 0.00 | 98 | 1011.2 |
| 20260510092030 | 50 | 0 | 0.0 | 0.9 | 0.00 | 0.39 | 0.00 | 98 | 1011.5 |
| 20260510091544 | 50 | 0 | 0.0 | 0.9 | 0.00 | 0.39 | 0.00 | 98 | 1011.4 |
| 20260510091030 | 50 | 138 | 0.0 | 0.9 | 0.00 | 0.39 | 0.00 | 98 | 1011.3 |
| 20260510090532 | 50 | 155 | 0.0 | 0.0 | 0.00 | 0.39 | 0.00 | 98 | 1011.3 |
| 20260510090053 | 50 | 0 | 0.0 | 0.0 | 0.00 | 0.39 | 0.00 | 98 | 1011.4 |
| 20260510085530 | 50 | 0 | 0.0 | 0.0 | 0.00 | 0.39 | 0.00 | 98 | 1011.2 |
| 20260510085030 | 50 | 0 | 0.0 | 0.0 | 0.00 | 0.39 | 0.00 | 98 | 1011.5 |
| 20260510084542 | 50 | 0 | 0.0 | 0.0 | 0.00 | 0.39 | 0.00 | 98 | 1011.7 |
| 20260510084030 | 50 | 0 | 0.0 | 0.0 | 0.00 | 0.39 | 0.00 | 98 | 1011.8 |
| 20260510083530 | 50 | 0 | 0.0 | 0.0 | 0.00 | 0.39 | 0.00 | 98 | 1011.9 |
| 20260510083051 | 50 | 0 | 0.0 | 0.0 | 0.00 | 0.39 | 0.00 | 98 | 1011.8 |
| 20260510082530 | 50 | 0 | 0.0 | 0.0 | 0.00 | 0.39 | 0.00 | 98 | 1011.8 |
| 20260510082034 | 50 | 0 | 0.0 | 0.0 | 0.00 | 0.39 | 0.00 | 98 | 1011.8 |
| 20260510081540 | 50 | 0 | 0.0 | 0.0 | 0.00 | 0.39 | 0.00 | 98 | 1011.8 |
| 20260510081030 | 50 | 0 | 0.0 | 0.0 | 0.00 | 0.39 | 0.00 | 98 | 1011.7 |
| 20260510080529 | 50 | 0 | 0.0 | 0.0 | 0.00 | 0.39 | 0.00 | 98 | 1011.8 |
| 20260510080046 | 50 | 0 | 0.0 | 0.0 | 0.00 | 0.39 | 0.00 | 98 | 1011.9 |
| 20260510075533 | 50 | 0 | 0.0 | 0.0 | 0.00 | 0.39 | 0.00 | 98 | 1011.9 |
| 20260510075029 | 50 | 0 | 0.0 | 0.0 | 0.00 | 0.39 | 0.00 | 98 | 1011.9 |
| 20260510074546 | 50 | 155 | 0.0 | 0.0 | 0.00 | 0.39 | 0.00 | 98 | 1011.9 |
| 20260510074031 | 50 | 0 | 0.0 | 0.0 | 0.00 | 0.39 | 0.00 | 98 | 1012.0 |
| 20260510073530 | 50 | 0 | 0.0 | 0.0 | 0.00 | 0.39 | 0.00 | 98 | 1012.0 |
| 20260510073052 | 50 | 0 | 0.0 | 0.0 | 0.00 | 0.39 | 0.00 | 98 | 1011.9 |
| 20260510072533 | 50 | 0 | 0.0 | 0.9 | 0.00 | 0.39 | 0.00 | 98 | 1011.7 |
| 20260510072030 | 50 | 0 | 0.0 | 0.9 | 0.00 | 0.39 | 0.00 | 98 | 1011.6 |
| 20260510071543 | 50 | 0 | 0.0 | 0.9 | 0.00 | 0.39 | 0.00 | 98 | 1011.5 |
| 20260510071030 | 50 | 0 | 0.0 | 0.9 | 0.00 | 0.39 | 0.00 | 98 | 1011.4 |
| 20260510070530 | 50 | 0 | 0.0 | 0.9 | 0.00 | 0.39 | 0.00 | 98 | 1011.5 |
| 20260510070140 | 51 | 0 | 0.0 | 0.9 | 0.00 | 0.39 | 0.00 | 98 | 1011.6 |
| 20260510065530 | 51 | 0 | 0.0 | 0.0 | 0.00 | 0.39 | 0.00 | 98 | 1011.6 |
| 20260510065030 | 51 | 0 | 0.0 | 0.0 | 0.00 | 0.39 | 0.00 | 98 | 1011.5 |
| 20260510064551 | 51 | 0 | 0.0 | 1.7 | 0.00 | 0.39 | 0.00 | 98 | 1011.6 |
| 20260510064029 | 51 | 0 | 0.0 | 1.7 | 0.00 | 0.39 | 0.00 | 98 | 1011.5 |
| 20260510063530 | 51 | 0 | 0.0 | 0.9 | 0.00 | 0.39 | 0.00 | 98 | 1011.6 |
| 20260510063044 | 51 | 134 | 0.0 | 0.9 | 0.00 | 0.39 | 0.00 | 98 | 1011.5 |
| 20260510062530 | 51 | 136 | 0.0 | 0.9 | 0.00 | 0.39 | 0.00 | 98 | 1011.5 |
| 20260510062029 | 50 | 0 | 0.0 | 1.7 | 0.00 | 0.39 | 0.00 | 98 | 1011.6 |
| 20260510061543 | 50 | 0 | 0.0 | 1.7 | 0.00 | 0.39 | 0.00 | 98 | 1011.4 |
| 20260510061029 | 50 | 0 | 0.0 | 0.0 | 0.00 | 0.39 | 0.00 | 98 | 1011.5 |
| 20260510060530 | 50 | 0 | 0.0 | 0.0 | 0.00 | 0.39 | 0.00 | 98 | 1011.5 |
| 20260510060045 | 50 | 0 | 0.0 | 0.0 | 0.00 | 0.39 | 0.00 | 98 | 1011.5 |
| 20260510055529 | 50 | 0 | 0.0 | 0.0 | 0.00 | 0.39 | 0.00 | 98 | 1011.5 |
| 20260510055029 | 50 | 0 | 0.0 | 0.0 | 0.00 | 0.39 | 0.00 | 98 | 1011.1 |
| 20260510054542 | 50 | 0 | 0.0 | 0.0 | 0.00 | 0.39 | 0.00 | 98 | 1011.3 |
| 20260510054033 | 50 | 0 | 0.0 | 0.0 | 0.00 | 0.39 | 0.00 | 98 | 1011.5 |
| 20260510053530 | 50 | 0 | 0.0 | 0.0 | 0.00 | 0.39 | 0.00 | 98 | 1011.5 |
| 20260510053041 | 50 | 0 | 0.0 | 0.0 | 0.00 | 0.39 | 0.00 | 98 | 1011.7 |
| 20260510052530 | 49 | 0 | 0.0 | 0.0 | 0.00 | 0.39 | 0.00 | 98 | 1011.6 |
| 20260510052030 | 49 | 0 | 0.0 | 0.0 | 0.00 | 0.39 | 0.00 | 98 | 1011.6 |
| 20260510051552 | 48 | 0 | 0.0 | 0.0 | 0.00 | 0.39 | 0.00 | 98 | 1011.7 |
| 20260510051029 | 48 | 0 | 0.0 | 0.0 | 0.00 | 0.39 | 0.00 | 98 | 1011.4 |
| 20260510050532 | 48 | 0 | 0.0 | 0.0 | 0.00 | 0.39 | 0.00 | 97 | 1011.4 |
| 20260510050044 | 48 | 0 | 0.0 | 0.0 | 0.00 | 0.39 | 0.00 | 97 | 1011.5 |
| 20260510045542 | 48 | 0 | 0.0 | 0.0 | 0.00 | 0.39 | 0.00 | 97 | 1011.4 |
| 20260510045030 | 48 | 0 | 0.0 | 0.0 | 0.00 | 0.39 | 0.00 | 97 | 1011.6 |
| 20260510044547 | 49 | 0 | 0.0 | 0.0 | 0.00 | 0.39 | 0.00 | 97 | 1011.3 |
| 20260510044029 | 49 | 0 | 0.0 | 0.0 | 0.00 | 0.39 | 0.00 | 97 | 1011.4 |
| 20260510043530 | 49 | 0 | 0.0 | 0.0 | 0.00 | 0.39 | 0.00 | 97 | 1011.5 |
| 20260510043045 | 49 | 0 | 0.0 | 0.0 | 0.00 | 0.39 | 0.00 | 97 | 1011.6 |
| 20260510042530 | 49 | 0 | 0.0 | 0.0 | 0.00 | 0.39 | 0.00 | 97 | 1011.5 |
| 20260510042030 | 49 | 0 | 0.0 | 0.0 | 0.00 | 0.39 | 0.00 | 97 | 1011.7 |
| 20260510041543 | 50 | 0 | 0.0 | 0.0 | 0.00 | 0.39 | 0.00 | 97 | 1011.5 |
| 20260510041030 | 50 | 0 | 0.0 | 0.0 | 0.00 | 0.39 | 0.00 | 97 | 1011.6 |
| 20260510040530 | 50 | 0 | 0.0 | 0.0 | 0.00 | 0.39 | 0.00 | 97 | 1011.7 |
| 20260510040051 | 50 | 0 | 0.0 | 0.0 | 0.00 | 0.39 | 0.00 | 97 | 1011.7 |
| 20260510035530 | 50 | 0 | 0.0 | 0.0 | 0.00 | 0.39 | 0.39 | 97 | 1011.4 |
| 20260510035030 | 50 | 0 | 0.0 | 0.9 | 0.00 | 0.39 | 0.39 | 97 | 1011.6 |
| 20260510034546 | 50 | 0 | 0.0 | 0.9 | 0.00 | 0.39 | 0.39 | 97 | 1011.7 |
| 20260510034030 | 50 | 0 | 0.0 | 0.0 | 0.00 | 0.39 | 0.39 | 97 | 1011.7 |
| 20260510033529 | 50 | 0 | 0.0 | 0.0 | 0.00 | 0.39 | 0.39 | 97 | 1011.6 |
| 20260510033043 | 50 | 0 | 0.0 | 0.0 | 0.00 | 0.39 | 0.39 | 97 | 1011.8 |
| 20260510032529 | 50 | 0 | 0.0 | 0.0 | 0.00 | 0.39 | 0.39 | 97 | 1011.8 |
| 20260510032029 | 50 | 0 | 0.0 | 0.0 | 0.00 | 0.39 | 0.39 | 97 | 1011.7 |
| 20260510031543 | 50 | 0 | 0.0 | 0.0 | 0.00 | 0.39 | 0.39 | 97 | 1011.7 |
| 20260510031029 | 50 | 0 | 0.0 | 0.0 | 0.00 | 0.39 | 0.39 | 97 | 1011.7 |
| 20260510030531 | 50 | 0 | 0.0 | 0.0 | 0.00 | 0.39 | 0.39 | 97 | 1011.8 |
| 20260510030052 | 50 | 0 | 0.0 | 0.0 | 0.00 | 0.39 | 0.39 | 97 | 1011.7 |
| 20260510025530 | 50 | 0 | 0.0 | 0.0 | 0.00 | 0.39 | 0.39 | 97 | 1011.6 |
| 20260510025030 | 50 | 0 | 0.0 | 0.0 | 0.00 | 0.39 | 0.39 | 97 | 1011.8 |
| 20260510024542 | 49 | 0 | 0.0 | 0.0 | 0.00 | 0.39 | 0.39 | 97 | 1011.7 |
| 20260510024030 | 49 | 0 | 0.0 | 0.0 | 0.00 | 0.39 | 0.39 | 97 | 1011.6 |
| 20260510023530 | 49 | 0 | 0.0 | 0.0 | 0.00 | 0.39 | 0.39 | 97 | 1011.6 |
| 20260510023049 | 49 | 0 | 0.0 | 0.0 | 0.00 | 0.39 | 0.39 | 97 | 1011.5 |
| 20260510022533 | 49 | 0 | 0.0 | 0.0 | 0.00 | 0.39 | 0.39 | 97 | 1011.6 |
| 20260510022030 | 49 | 0 | 0.0 | 0.0 | 0.00 | 0.39 | 0.39 | 97 | 1011.5 |
| 20260510021544 | 49 | 0 | 0.0 | 0.0 | 0.00 | 0.39 | 0.39 | 97 | 1011.6 |
| 20260510021029 | 49 | 0 | 0.0 | 0.0 | 0.00 | 0.39 | 0.39 | 97 | 1011.6 |
| 20260510020530 | 49 | 0 | 0.0 | 0.0 | 0.00 | 0.39 | 0.39 | 97 | 1011.9 |
| 20260510020044 | 49 | 0 | 0.0 | 0.0 | 0.00 | 0.39 | 0.39 | 97 | 1012.1 |
| 20260510015530 | 49 | 0 | 0.0 | 0.0 | 0.00 | 0.39 | 0.39 | 97 | 1012.2 |
| 20260510015029 | 49 | 0 | 0.0 | 0.0 | 0.00 | 0.39 | 0.39 | 97 | 1012.2 |
| 20260510014545 | 49 | 0 | 0.0 | 0.0 | 0.00 | 0.39 | 0.39 | 97 | 1012.3 |
| 20260510014030 | 49 | 0 | 0.0 | 0.0 | 0.00 | 0.39 | 0.39 | 97 | 1012.3 |
| 20260510013530 | 49 | 0 | 0.0 | 0.0 | 0.00 | 0.39 | 0.39 | 97 | 1012.3 |
| 20260510013042 | 49 | 0 | 0.0 | 0.0 | 0.00 | 0.39 | 0.39 | 97 | 1012.4 |
| 20260510012530 | 49 | 0 | 0.0 | 0.0 | 0.00 | 0.39 | 0.39 | 97 | 1012.3 |
| 20260510012026 | 49 | 0 | 0.0 | 0.0 | 0.00 | 0.39 | 0.39 | 97 | 1012.1 |
| 20260510011546 | 49 | 0 | 0.0 | 0.0 | 0.00 | 0.39 | 0.39 | 97 | 1012.0 |
| 20260510011026 | 49 | 0 | 0.0 | 0.0 | 0.00 | 0.39 | 0.39 | 97 | 1011.9 |
| 20260510010530 | 49 | 0 | 0.0 | 0.0 | 0.00 | 0.39 | 0.39 | 97 | 1011.8 |
| 20260510010038 | 49 | 0 | 0.0 | 0.0 | 0.00 | 0.39 | 0.39 | 97 | 1011.6 |
| 20260510005530 | 49 | 0 | 0.0 | 0.0 | 0.00 | 0.39 | 0.39 | 97 | 1011.5 |
| 20260510005030 | 49 | 0 | 0.0 | 0.0 | 0.00 | 0.39 | 0.39 | 97 | 1011.5 |
| 20260510004539 | 49 | 0 | 0.0 | 0.0 | 0.00 | 0.39 | 0.39 | 97 | 1011.4 |
| 20260510004029 | 49 | 0 | 0.0 | 0.0 | 0.00 | 0.39 | 0.39 | 97 | 1011.4 |
| 20260510003530 | 49 | 0 | 0.0 | 0.0 | 0.00 | 0.39 | 0.39 | 97 | 1011.5 |
| 20260510003044 | 49 | 0 | 0.0 | 0.0 | 0.00 | 0.39 | 0.39 | 97 | 1011.4 |
| 20260510002529 | 49 | 0 | 0.0 | 0.0 | 0.00 | 0.39 | 0.39 | 97 | 1011.3 |
| 20260510002029 | 49 | 0 | 0.0 | 0.0 | 0.00 | 0.39 | 0.39 | 97 | 1011.4 |
| 20260510001542 | 49 | 0 | 0.0 | 0.0 | 0.00 | 0.39 | 0.39 | 97 | 1011.4 |
| 20260510001029 | 49 | 0 | 0.0 | 0.0 | 0.00 | 0.39 | 0.39 | 97 | 1011.4 |
| 20260510000530 | 49 | 0 | 0.0 | 0.0 | 0.00 | 0.39 | 0.39 | 97 | 1011.3 |
| 20260510000043 | 49 | 0 | 0.0 | 0.0 | 0.00 | 0.39 | 0.39 | 97 | 1011.4 |
| 20260509235529 | 49 | 0 | 0.0 | 0.0 | 0.00 | 0.39 | 0.39 | 96 | 1011.5 |
| 20260509235029 | 49 | 0 | 0.0 | 0.9 | 0.00 | 0.39 | 0.39 | 96 | 1011.4 |
| 20260509234543 | 49 | 0 | 0.0 | 0.9 | 0.00 | 0.39 | 0.39 | 96 | 1011.4 |
| 20260509234031 | 49 | 0 | 0.0 | 0.9 | 0.00 | 0.39 | 0.39 | 96 | 1011.5 |
| 20260509233527 | 49 | 84 | 0.0 | 1.7 | 0.00 | 0.39 | 0.39 | 96 | 1011.5 |
| 20260509233037 | 49 | 0 | 0.0 | 1.7 | 0.00 | 0.39 | 0.39 | 96 | 1011.7 |
| 20260509232535 | 49 | 354 | 0.0 | 1.7 | 0.00 | 0.39 | 0.39 | 96 | 1011.7 |
| 20260509232030 | 49 | 0 | 0.0 | 1.7 | 0.00 | 0.39 | 0.39 | 96 | 1011.6 |
| 20260509231545 | 49 | 0 | 0.0 | 0.9 | 0.00 | 0.39 | 0.39 | 96 | 1011.5 |
| 20260509231029 | 49 | 0 | 0.0 | 0.9 | 0.00 | 0.39 | 0.39 | 96 | 1011.5 |
| 20260509230529 | 49 | 0 | 0.0 | 0.9 | 0.00 | 0.39 | 0.39 | 96 | 1011.4 |
| 20260509230047 | 49 | 333 | 0.0 | 0.9 | 0.00 | 0.39 | 0.39 | 96 | 1011.5 |
| 20260509225529 | 49 | 0 | 0.0 | 0.0 | 0.00 | 0.39 | 0.39 | 96 | 1011.5 |
| 20260509225029 | 49 | 0 | 0.0 | 0.0 | 0.00 | 0.39 | 0.39 | 96 | 1011.4 |
| 20260509224543 | 49 | 0 | 0.0 | 0.0 | 0.00 | 0.39 | 0.39 | 96 | 1011.6 |
| 20260509224029 | 49 | 0 | 0.0 | 0.0 | 0.00 | 0.39 | 0.39 | 96 | 1011.4 |
| 20260509223529 | 49 | 0 | 0.0 | 0.0 | 0.00 | 0.39 | 0.39 | 96 | 1011.5 |
| 20260509223044 | 49 | 0 | 0.0 | 0.0 | 0.00 | 0.39 | 0.39 | 96 | 1011.4 |
| 20260509222526 | 49 | 0 | 0.0 | 0.0 | 0.01 | 0.39 | 0.39 | 96 | 1011.3 |
| 20260509222026 | 49 | 0 | 0.0 | 0.0 | 0.01 | 0.39 | 0.39 | 96 | 1011.4 |
| 20260509221542 | 48 | 0 | 0.0 | 0.9 | 0.02 | 0.39 | 0.39 | 96 | 1011.3 |
| 20260509221031 | 48 | 0 | 0.0 | 0.9 | 0.02 | 0.39 | 0.39 | 96 | 1011.5 |
| 20260509220531 | 48 | 356 | 0.0 | 0.9 | 0.02 | 0.39 | 0.39 | 96 | 1011.5 |
| 20260509220041 | 48 | 0 | 0.0 | 0.9 | 0.02 | 0.39 | 0.39 | 96 | 1011.6 |
| 20260509215530 | 48 | 346 | 0.0 | 0.9 | 0.03 | 0.39 | 0.39 | 96 | 1011.3 |
| 20260509215029 | 48 | 0 | 0.0 | 0.9 | 0.03 | 0.39 | 0.39 | 95 | 1011.5 |
| 20260509214536 | 48 | 0 | 0.0 | 0.9 | 0.04 | 0.39 | 0.39 | 95 | 1011.5 |
| 20260509214029 | 48 | 0 | 0.0 | 0.0 | 0.04 | 0.39 | 0.39 | 95 | 1011.5 |
| 20260509213530 | 48 | 0 | 0.0 | 0.0 | 0.05 | 0.39 | 0.39 | 95 | 1011.6 |
| 20260509213055 | 48 | 0 | 0.0 | 0.0 | 0.05 | 0.39 | 0.39 | 95 | 1011.5 |
| 20260509212529 | 48 | 0 | 0.0 | 0.0 | 0.05 | 0.38 | 0.38 | 95 | 1011.7 |
| 20260509212029 | 48 | 0 | 0.0 | 0.0 | 0.05 | 0.38 | 0.38 | 95 | 1011.6 |
| 20260509211543 | 48 | 0 | 0.0 | 0.0 | 0.04 | 0.37 | 0.37 | 95 | 1011.7 |
| 20260509211030 | 48 | 0 | 0.0 | 0.9 | 0.05 | 0.37 | 0.37 | 95 | 1011.8 |
| 20260509210530 | 48 | 0 | 0.0 | 0.9 | 0.05 | 0.37 | 0.37 | 95 | 1012.0 |
| 20260509210053 | 48 | 0 | 0.0 | 0.9 | 0.05 | 0.37 | 0.37 | 95 | 1011.8 |
| 20260509205529 | 48 | 0 | 0.0 | 0.9 | 0.05 | 0.36 | 0.36 | 94 | 1012.1 |
| 20260509205027 | 48 | 0 | 0.0 | 0.9 | 0.05 | 0.36 | 0.36 | 94 | 1012.1 |
| 20260509204543 | 48 | 0 | 0.0 | 0.0 | 0.05 | 0.35 | 0.35 | 94 | 1012.1 |
| 20260509204029 | 48 | 0 | 0.0 | 0.0 | 0.05 | 0.35 | 0.35 | 94 | 1012.1 |
| 20260509203526 | 48 | 0 | 0.0 | 0.0 | 0.04 | 0.34 | 0.34 | 94 | 1012.3 |
| 20260509203041 | 48 | 0 | 0.0 | 0.0 | 0.03 | 0.33 | 0.33 | 94 | 1012.3 |
| 20260509202527 | 48 | 0 | 0.0 | 0.9 | 0.04 | 0.33 | 0.33 | 94 | 1012.4 |
| 20260509202030 | 49 | 0 | 0.0 | 0.9 | 0.04 | 0.33 | 0.33 | 94 | 1012.3 |
| 20260509201538 | 48 | 0 | 0.0 | 0.9 | 0.04 | 0.33 | 0.33 | 94 | 1012.3 |
| 20260509201029 | 49 | 0 | 0.0 | 0.0 | 0.03 | 0.32 | 0.32 | 94 | 1012.4 |
| 20260509200529 | 49 | 0 | 0.0 | 0.0 | 0.04 | 0.32 | 0.32 | 94 | 1012.4 |
| 20260509200046 | 49 | 0 | 0.0 | 0.0 | 0.04 | 0.32 | 0.32 | 94 | 1012.5 |
| 20260509195531 | 49 | 0 | 0.0 | 0.9 | 0.03 | 0.31 | 0.31 | 94 | 1012.6 |
| 20260509195029 | 49 | 0 | 0.0 | 0.9 | 0.03 | 0.31 | 0.31 | 94 | 1012.4 |
| 20260509194543 | 49 | 0 | 0.0 | 0.9 | 0.02 | 0.30 | 0.30 | 94 | 1012.6 |